Location: Newark
(48.1500°N, 13.1167°E)
Time: 11:40:38
(UTC+00:00)

Envisat - Visible Passes

Search period start: 20 September 2021 00:00
Search period end: 30 September 2021 00:00
Orbit: 764 x 766 km, 98.2° (Epoch: 20 September)

Date Brightness Start Highest point End Pass type
(mag) Time Alt. Az. Time Alt. Az. Time Alt. Az.
20 Sep 4.7 03:44:34 10° NNE 03:49:16 36° E 03:53:54 10° SSE visible
21 Sep 5.8 03:08:38 10° NE 03:12:04 18° E 03:15:27 10° SE visible
22 Sep 3.7 04:09:40 10° NNE 04:14:43 60° E 04:19:44 10° S visible
23 Sep 5.1 03:33:15 10° NE 03:37:40 29° E 03:42:03 10° SSE visible
24 Sep 6.0 02:57:42 10° NE 03:00:24 14° E 03:03:05 10° ESE visible
25 Sep 4.1 03:58:14 10° NNE 04:03:10 48° E 04:08:04 10° S visible
26 Sep 5.5 03:21:59 10° NE 03:26:03 24° E 03:30:05 10° SE visible
27 Sep 6.2 02:47:14 10° ENE 02:48:43 11° E 02:50:12 10° ESE visible
27 Sep 3.2 04:23:27 10° NNE 04:28:35 79° ESE 04:33:39 10° S visible
28 Sep 4.6 03:46:50 10° NNE 03:51:36 38° E 03:56:19 10° SSE visible
29 Sep 5.8 03:10:49 10° NE 03:14:25 19° E 03:17:59 10° SE visible
